Hourly Data Report for January 11, 2017

All times are specified in Local Standard Time (LST). Add 1 hour to adjust for Daylight Saving Time where and when it is observed.

ST LEONARD CS
NEW BRUNSWICK

47°09'28.050" N
67°49'55.014" W
245.00 m
810I001
71019
WIY

Download Data

Hourly Data (January 2017)
Hourly Data Report for January 11, 2017
Temp Definition
°C
Dew Point Temp Definition
°C
Rel Hum Definition
%
Wind Dir Definition
10's deg

Wind Spd Definition
km/h
Visibility Definition
km
Stn Press Definition
kPa
Hmdx Definition


Wind Chill Definition


Weather Definition


TIME
00:00 -0.5 -1.8 91 16 37   99.49   -8 LegendNANA
01:00 -0.7 -1.1 98 16 38   99.31   -8 LegendNANA
02:00 -0.7 -0.9 99 15 40   99.11   -8 LegendNANA
03:00 -0.3 -0.6 98 15 44   99.01   -8 LegendNANA
04:00 -0.3 -0.4 99 15 41   98.86   -8 LegendNANA
05:00 -0.4 -0.5 99 15 46   98.73   -8 LegendNANA
06:00 0.1 -0.1 99 15 41   98.50     LegendNANA
07:00 0.8 0.5 98 15 41   98.25     LegendNANA
08:00 1.9 1.6 98 16 45   98.13     LegendNANA
09:00 2.2 1.8 98 16 40   98.05     LegendNANA
10:00 3.0 2.6 97 17 36   98.03     LegendNANA
11:00 3.6 3.0 95 19 36   98.06     LegendNANA
12:00 4.8 2.3 84 20 34   98.03     LegendNANA
13:00 5.2 0.7 73 22 29   98.11     LegendNANA
14:00 2.2 1.0 92 24 28   98.29     LegendNANA
15:00 3.5 -0.5 75 24 27   98.44     LegendNANA
16:00 3.1 -1.3 72 23 20   98.61     LegendNANA
17:00 2.9 -1.8 71 24 20   98.83     LegendNANA
18:00 2.1 -2.3 73 23 20   98.93     LegendNANA
19:00 1.0 -2.8 76 22 15   99.00     LegendNANA
20:00 -0.2 -3.5 79 20 8   99.12   -3 LegendNANA
21:00 -0.8 -3.5 82 16 11   99.16   -5 LegendNANA
22:00 -0.9 -3.7 81 14 9   99.15   -4 LegendNANA
23:00 0.3 -3.6 75 15 16   99.07     LegendNANA

Notes on Data Quality.

Legend

  • E = Estimated
  • M = Missing
  • NA = Not Available
  • ‡ = Partner data that is not subject to review by the National Climate Archives
Date modified: